Time,TemperatureF,DewpointF,PressureIn,WindDirection,WindDirectionDegrees,WindSpeedMPH,WindSpeedGustMPH,Humidity,HourlyPrecipIn,Conditions,Clouds,dailyrainin,SolarRadiationWatts/m^2,SoftwareType,DateUTC
2013-09-19 00:00:00,65.0,64.0,-100.00,SE,140,2.0,5.0,96,0.00,,,0.03,0.000000,,2013-09-19 05:00:00,
2013-09-19 00:23:00,65.0,64.0,-100.00,SE,140,2.0,5.0,96,0.00,,,0.03,0.000000,,2013-09-19 05:23:00,
2013-09-19 00:34:00,65.0,64.0,-100.00,SE,140,2.0,5.0,96,0.00,,,0.03,0.000000,,2013-09-19 05:34:00,
2013-09-19 00:43:00,65.0,64.0,-100.00,SE,140,2.0,5.0,96,0.00,,,0.03,0.000000,,2013-09-19 05:43:00,
2013-09-19 00:52:00,65.0,64.0,-100.00,SE,140,2.0,5.0,96,0.00,,,0.03,0.000000,,2013-09-19 05:52:00,
2013-09-19 01:00:00,65.0,63.0,-100.00,SSE,155,3.0,9.0,94,0.00,,,0.03,0.000000,,2013-09-19 06:00:00,
2013-09-19 01:22:00,65.0,63.0,-100.00,SSE,155,3.0,9.0,94,0.00,,,0.03,0.000000,,2013-09-19 06:22:00,
2013-09-19 01:32:00,65.0,63.0,-100.00,SSE,155,3.0,9.0,94,0.00,,,0.03,0.000000,,2013-09-19 06:32:00,
2013-09-19 01:43:00,65.0,63.0,-100.00,SSE,155,3.0,9.0,94,0.00,,,0.03,0.000000,,2013-09-19 06:43:00,
2013-09-19 01:52:00,65.0,63.0,-100.00,SSE,155,3.0,9.0,94,0.00,,,0.03,0.000000,,2013-09-19 06:52:00,
2013-09-19 02:00:00,64.0,63.0,-100.00,SSE,148,2.0,7.0,95,0.00,,,0.03,0.000000,,2013-09-19 07:00:00,
2013-09-19 02:22:00,64.0,63.0,-100.00,SSE,148,2.0,7.0,95,0.00,,,0.03,0.000000,,2013-09-19 07:22:00,
2013-09-19 02:33:00,64.0,63.0,-100.00,SSE,148,2.0,7.0,95,0.00,,,0.03,0.000000,,2013-09-19 07:33:00,
2013-09-19 02:42:00,64.0,63.0,-100.00,SSE,148,2.0,7.0,95,0.00,,,0.03,0.000000,,2013-09-19 07:42:00,
2013-09-19 02:52:00,64.0,63.0,-100.00,SSE,148,2.0,7.0,95,0.00,,,0.03,0.000000,,2013-09-19 07:52:00,
2013-09-19 03:00:00,65.0,64.0,-100.00,SE,144,2.0,7.0,95,0.00,,,0.03,0.000000,,2013-09-19 08:00:00,
2013-09-19 03:22:00,65.0,64.0,-100.00,SE,144,2.0,7.0,95,0.00,,,0.03,0.000000,,2013-09-19 08:22:00,
2013-09-19 03:33:00,65.0,64.0,-100.00,SE,144,2.0,7.0,95,0.00,,,0.03,0.000000,,2013-09-19 08:33:00,
2013-09-19 03:42:00,65.0,64.0,-100.00,SE,144,2.0,7.0,95,0.00,,,0.03,0.000000,,2013-09-19 08:42:00,
2013-09-19 03:52:00,65.0,64.0,-100.00,SE,144,2.0,7.0,95,0.00,,,0.03,0.000000,,2013-09-19 08:52:00,
2013-09-19 04:00:00,64.0,63.0,-100.00,SE,133,2.0,4.0,97,0.00,,,0.02,0.000000,,2013-09-19 09:00:00,
2013-09-19 04:22:00,64.0,63.0,-100.00,SE,133,2.0,4.0,97,0.00,,,0.02,0.000000,,2013-09-19 09:22:00,
2013-09-19 04:33:00,64.0,63.0,-100.00,SE,133,2.0,4.0,97,0.00,,,0.02,0.000000,,2013-09-19 09:33:00,
2013-09-19 04:43:00,64.0,63.0,-100.00,SE,133,2.0,4.0,97,0.00,,,0.02,0.000000,,2013-09-19 09:43:00,
2013-09-19 04:53:00,64.0,63.0,-100.00,SE,133,2.0,4.0,97,0.00,,,0.02,0.000000,,2013-09-19 09:53:00,
2013-09-19 05:00:00,63.0,62.0,-100.00,ESE,114,1.0,4.0,97,0.00,,,0.01,0.000000,,2013-09-19 10:00:00,
2013-09-19 05:43:00,63.0,62.0,-100.00,ESE,114,1.0,4.0,97,0.00,,,0.01,0.000000,,2013-09-19 10:43:00,
2013-09-19 05:52:00,63.0,62.0,-100.00,ESE,114,1.0,4.0,97,0.00,,,0.01,0.000000,,2013-09-19 10:52:00,
2013-09-19 06:00:00,64.0,63.0,-100.00,ESE,114,1.0,5.0,98,0.00,,,0.01,0.000000,,2013-09-19 11:00:00,
2013-09-19 06:22:00,64.0,63.0,-100.00,ESE,114,1.0,5.0,98,0.00,,,0.01,0.000000,,2013-09-19 11:22:00,
2013-09-19 06:33:00,64.0,63.0,-100.00,ESE,114,1.0,5.0,98,0.00,,,0.01,0.000000,,2013-09-19 11:33:00,
2013-09-19 06:42:00,64.0,63.0,-100.00,ESE,114,1.0,5.0,98,0.00,,,0.01,0.000000,,2013-09-19 11:42:00,
2013-09-19 06:53:00,64.0,63.0,-100.00,ESE,114,1.0,5.0,98,0.00,,,0.01,0.000000,,2013-09-19 11:53:00,
2013-09-19 07:00:00,64.0,63.0,-100.00,SE,130,2.0,5.0,98,0.00,,,0.00,1.000000,,2013-09-19 12:00:00,
2013-09-19 07:43:00,64.0,63.0,-100.00,SE,130,2.0,5.0,98,0.00,,,0.00,1.000000,,2013-09-19 12:43:00,
2013-09-19 07:52:00,64.0,63.0,-100.00,SE,130,2.0,5.0,98,0.00,,,0.00,1.000000,,2013-09-19 12:52:00,
2013-09-19 08:00:00,66.0,65.0,-100.00,SE,146,3.0,7.0,98,0.00,,,0.00,33.000000,,2013-09-19 13:00:00,
2013-09-19 08:43:00,66.0,65.0,-100.00,SE,146,3.0,7.0,98,0.00,,,0.00,33.000000,,2013-09-19 13:43:00,
2013-09-19 08:52:00,66.0,65.0,-100.00,SE,146,3.0,7.0,98,0.00,,,0.00,33.000000,,2013-09-19 13:52:00,
2013-09-19 09:00:00,68.0,66.0,-100.00,SE,143,3.0,11.0,94,0.00,,,0.00,104.000000,,2013-09-19 14:00:00,
2013-09-19 09:22:00,68.0,66.0,-100.00,SE,143,3.0,11.0,94,0.00,,,0.00,104.000000,,2013-09-19 14:22:00,
2013-09-19 09:32:00,68.0,66.0,-100.00,SE,143,3.0,11.0,94,0.00,,,0.00,104.000000,,2013-09-19 14:32:00,
2013-09-19 09:42:00,68.0,66.0,-100.00,SE,143,3.0,11.0,94,0.00,,,0.00,104.000000,,2013-09-19 14:42:00,
2013-09-19 09:52:00,68.0,66.0,-100.00,SE,143,3.0,11.0,94,0.00,,,0.00,104.000000,,2013-09-19 14:52:00,
2013-09-19 10:00:00,71.0,68.0,-100.00,SSE,165,3.0,10.0,89,0.00,,,0.00,199.000000,,2013-09-19 15:00:00,
2013-09-19 10:22:00,71.0,68.0,-100.00,SSE,165,3.0,10.0,89,0.00,,,0.00,199.000000,,2013-09-19 15:22:00,
2013-09-19 10:33:00,71.0,68.0,-100.00,SSE,165,3.0,10.0,89,0.00,,,0.00,199.000000,,2013-09-19 15:33:00,
2013-09-19 10:43:00,71.0,68.0,-100.00,SSE,165,3.0,10.0,89,0.00,,,0.00,199.000000,,2013-09-19 15:43:00,
2013-09-19 10:54:00,71.0,68.0,-100.00,SSE,165,3.0,10.0,89,0.00,,,0.00,199.000000,,2013-09-19 15:54:00,
2013-09-19 11:00:00,76.0,69.0,-100.00,South,176,5.0,11.0,80,0.00,,,0.00,340.000000,,2013-09-19 16:00:00,
2013-09-19 11:43:00,76.0,69.0,-100.00,South,176,5.0,11.0,80,0.00,,,0.00,340.000000,,2013-09-19 16:43:00,
2013-09-19 11:52:00,76.0,69.0,-100.00,South,176,5.0,11.0,80,0.00,,,0.00,340.000000,,2013-09-19 16:52:00,
2013-09-19 12:00:00,76.0,69.0,-100.00,South,180,4.0,12.0,79,0.00,,,0.00,300.000000,,2013-09-19 17:00:00,
2013-09-19 12:23:00,76.0,69.0,-100.00,South,180,4.0,12.0,79,0.00,,,0.00,300.000000,,2013-09-19 17:23:00,
2013-09-19 12:34:00,76.0,69.0,-100.00,South,180,4.0,12.0,79,0.00,,,0.00,300.000000,,2013-09-19 17:34:00,
2013-09-19 12:42:00,76.0,69.0,-100.00,South,180,4.0,12.0,79,0.00,,,0.00,300.000000,,2013-09-19 17:42:00,
2013-09-19 12:53:00,76.0,69.0,-100.00,South,180,4.0,12.0,79,0.00,,,0.00,300.000000,,2013-09-19 17:53:00,
2013-09-19 13:00:00,76.0,69.0,-100.00,SSE,168,4.0,12.0,79,0.00,,,0.00,266.000000,,2013-09-19 18:00:00,
2013-09-19 13:42:00,76.0,69.0,-100.00,SSE,168,4.0,12.0,79,0.00,,,0.00,266.000000,,2013-09-19 18:42:00,
2013-09-19 13:52:00,76.0,69.0,-100.00,SSE,168,4.0,12.0,79,0.00,,,0.00,266.000000,,2013-09-19 18:52:00,
2013-09-19 14:00:00,74.0,68.0,-100.00,South,177,6.0,13.0,83,0.00,,,0.00,107.000000,,2013-09-19 19:00:00,
2013-09-19 14:22:00,74.0,68.0,-100.00,South,177,6.0,13.0,83,0.00,,,0.00,107.000000,,2013-09-19 19:22:00,
2013-09-19 14:32:00,74.0,68.0,-100.00,South,177,6.0,13.0,83,0.00,,,0.00,107.000000,,2013-09-19 19:32:00,
2013-09-19 14:42:00,74.0,68.0,-100.00,South,177,6.0,13.0,83,0.00,,,0.00,107.000000,,2013-09-19 19:42:00,
2013-09-19 14:52:00,74.0,68.0,-100.00,South,177,6.0,13.0,83,0.00,,,0.00,107.000000,,2013-09-19 19:52:00,
2013-09-19 15:00:00,68.0,66.0,-100.00,SSE,147,2.0,21.0,94,0.06,,,0.06,31.000000,,2013-09-19 20:00:00,
2013-09-19 15:42:00,68.0,66.0,-100.00,SSE,147,2.0,21.0,94,0.06,,,0.06,31.000000,,2013-09-19 20:42:00,
2013-09-19 15:52:00,68.0,66.0,-100.00,SSE,147,2.0,21.0,94,0.06,,,0.06,31.000000,,2013-09-19 20:52:00,
2013-09-19 16:00:00,68.0,66.0,-100.00,SSE,164,3.0,9.0,93,0.00,,,0.06,112.000000,,2013-09-19 21:00:00,
2013-09-19 16:22:00,68.0,66.0,-100.00,SSE,164,3.0,9.0,93,0.00,,,0.06,112.000000,,2013-09-19 21:22:00,
2013-09-19 16:34:00,68.0,66.0,-100.00,SSE,164,3.0,9.0,93,0.00,,,0.06,112.000000,,2013-09-19 21:34:00,
2013-09-19 16:44:00,68.0,66.0,-100.00,SSE,164,3.0,9.0,93,0.00,,,0.06,112.000000,,2013-09-19 21:44:00,
2013-09-19 16:55:00,68.0,66.0,-100.00,SSE,164,3.0,9.0,93,0.00,,,0.06,112.000000,,2013-09-19 21:55:00,
2013-09-19 17:00:00,69.0,66.0,-100.00,SSW,205,5.0,12.0,89,0.00,,,0.06,222.000000,,2013-09-19 22:00:00,
2013-09-19 17:24:00,69.0,66.0,-100.00,SSW,205,5.0,12.0,89,0.00,,,0.06,222.000000,,2013-09-19 22:24:00,
2013-09-19 17:33:00,69.0,66.0,-100.00,SSW,205,5.0,12.0,89,0.00,,,0.06,222.000000,,2013-09-19 22:33:00,
2013-09-19 17:42:00,69.0,66.0,-100.00,SSW,205,5.0,12.0,89,0.00,,,0.06,222.000000,,2013-09-19 22:42:00,
2013-09-19 17:53:00,69.0,66.0,-100.00,SSW,205,5.0,12.0,89,0.00,,,0.06,222.000000,,2013-09-19 22:53:00,
2013-09-19 18:00:00,68.0,64.0,-100.00,SSW,207,3.0,13.0,88,0.00,,,0.06,134.000000,,2013-09-19 23:00:00,
2013-09-19 18:23:00,68.0,64.0,-100.00,SSW,207,3.0,13.0,88,0.00,,,0.06,134.000000,,2013-09-19 23:23:00,
2013-09-19 18:34:00,68.0,64.0,-100.00,SSW,207,3.0,13.0,88,0.00,,,0.06,134.000000,,2013-09-19 23:34:00,
2013-09-19 18:43:00,68.0,64.0,-100.00,SSW,207,3.0,13.0,88,0.00,,,0.06,134.000000,,2013-09-19 23:43:00,
2013-09-19 18:53:00,68.0,64.0,-100.00,SSW,207,3.0,13.0,88,0.00,,,0.06,134.000000,,2013-09-19 23:53:00,
2013-09-19 19:00:00,67.0,65.0,-100.00,West,273,3.0,7.0,92,0.00,,,0.06,36.000000,,2013-09-20 00:00:00,
2013-09-19 19:22:00,67.0,65.0,-100.00,West,273,3.0,7.0,92,0.00,,,0.06,36.000000,,2013-09-20 00:22:00,
2013-09-19 19:32:00,67.0,65.0,-100.00,West,273,3.0,7.0,92,0.00,,,0.06,36.000000,,2013-09-20 00:32:00,
2013-09-19 19:42:00,67.0,65.0,-100.00,West,273,3.0,7.0,92,0.00,,,0.06,36.000000,,2013-09-20 00:42:00,
2013-09-19 19:52:00,67.0,65.0,-100.00,West,273,3.0,7.0,92,0.00,,,0.06,36.000000,,2013-09-20 00:52:00,
2013-09-19 20:00:00,66.0,64.0,-100.00,WSW,255,3.0,7.0,94,0.00,,,0.06,1.000000,,2013-09-20 01:00:00,
2013-09-19 20:22:00,66.0,64.0,-100.00,WSW,255,3.0,7.0,94,0.00,,,0.06,1.000000,,2013-09-20 01:22:00,
2013-09-19 20:32:00,66.0,64.0,-100.00,WSW,255,3.0,7.0,94,0.00,,,0.06,1.000000,,2013-09-20 01:32:00,
2013-09-19 20:42:00,66.0,64.0,-100.00,WSW,255,3.0,7.0,94,0.00,,,0.06,1.000000,,2013-09-20 01:42:00,
2013-09-19 20:52:00,66.0,64.0,-100.00,WSW,255,3.0,7.0,94,0.00,,,0.06,1.000000,,2013-09-20 01:52:00,
2013-09-19 21:00:00,65.0,63.0,-100.00,WSW,244,4.0,7.0,94,0.00,,,0.06,0.000000,,2013-09-20 02:00:00,
2013-09-19 21:22:00,65.0,63.0,-100.00,WSW,244,4.0,7.0,94,0.00,,,0.06,0.000000,,2013-09-20 02:22:00,
2013-09-19 21:32:00,65.0,63.0,-100.00,WSW,244,4.0,7.0,94,0.00,,,0.06,0.000000,,2013-09-20 02:32:00,
2013-09-19 21:42:00,65.0,63.0,-100.00,WSW,244,4.0,7.0,94,0.00,,,0.06,0.000000,,2013-09-20 02:42:00,
2013-09-19 21:53:00,65.0,63.0,-100.00,WSW,244,4.0,7.0,94,0.00,,,0.06,0.000000,,2013-09-20 02:53:00,
2013-09-19 22:00:00,65.0,64.0,-100.00,WSW,253,4.0,7.0,95,0.00,,,0.06,0.000000,,2013-09-20 03:00:00,
2013-09-19 22:23:00,65.0,64.0,-100.00,WSW,253,4.0,7.0,95,0.00,,,0.06,0.000000,,2013-09-20 03:23:00,
2013-09-19 22:34:00,65.0,64.0,-100.00,WSW,253,4.0,7.0,95,0.00,,,0.06,0.000000,,2013-09-20 03:34:00,
2013-09-19 22:45:00,65.0,64.0,-100.00,WSW,253,4.0,7.0,95,0.00,,,0.06,0.000000,,2013-09-20 03:45:00,
2013-09-19 22:56:00,65.0,64.0,-100.00,WSW,253,4.0,7.0,95,0.00,,,0.06,0.000000,,2013-09-20 03:56:00,
2013-09-19 23:00:00,65.0,64.0,-100.00,SW,234,4.0,9.0,95,0.00,,,0.06,0.000000,,2013-09-20 04:00:00,
2013-09-19 23:24:00,65.0,64.0,-100.00,SW,234,4.0,9.0,95,0.00,,,0.06,0.000000,,2013-09-20 04:24:00,
2013-09-19 23:34:00,65.0,64.0,-100.00,SW,234,4.0,9.0,95,0.00,,,0.06,0.000000,,2013-09-20 04:34:00,
2013-09-19 23:44:00,65.0,64.0,-100.00,SW,234,4.0,9.0,95,0.00,,,0.06,0.000000,,2013-09-20 04:44:00,
2013-09-19 23:54:00,65.0,64.0,-100.00,SW,234,4.0,9.0,95,0.00,,,0.06,0.000000,,2013-09-20 04:54:00,